TRP531 MKJP-SYCJ

Flight info

Callsign TRP531
Flight time N/A
Altitude 35000
Route ENEKA7 NOSIS UL349 SATOE L343 ANADA UG449 KORTO DCT LOKIT DCT MEXEN
Aircraft A320/M-SDE3FGHIRWY/LB1

Departure

Time 2026-05-01 14:40
Airport Norman Manley International Airport (MKJP)

Arrival

Time N/A
Airport Cheddi Jagan International Airport (SYCJ)
Time Latitude Longitude Altitude Speed Heading
2026-05-01 14:19 17.93670 -76.78032 25 ft 0 kts 112°
2026-05-01 14:30 17.93676 -76.78048 25 ft 4 kts 115°
2026-05-01 14:31 17.93713 -76.78075 25 ft 4 kts 192°
2026-05-01 14:31 17.93727 -76.78071 25 ft 1 kts 203°
2026-05-01 14:31 17.93729 -76.78070 25 ft 0 kts 203°
2026-05-01 14:32 17.93728 -76.78070 25 ft 0 kts 203°
2026-05-01 14:34 17.93710 -76.78081 25 ft 5 kts 210°
2026-05-01 14:35 17.93662 -76.78103 25 ft 10 kts 202°
2026-05-01 14:35 17.93586 -76.78136 25 ft 13 kts 202°
2026-05-01 14:35 17.93517 -76.78184 25 ft 13 kts 276°
2026-05-01 14:35 17.93547 -76.78274 25 ft 14 kts 291°
2026-05-01 14:36 17.93589 -76.78385 25 ft 19 kts 292°
2026-05-01 14:36 17.93643 -76.78525 25 ft 23 kts 292°
2026-05-01 14:36 17.93711 -76.78695 25 ft 27 kts 291°
2026-05-01 14:36 17.93778 -76.78874 25 ft 26 kts 292°
2026-05-01 14:37 17.93848 -76.79051 25 ft 26 kts 293°
2026-05-01 14:37 17.93922 -76.79226 25 ft 26 kts 295°
2026-05-01 14:37 17.93988 -76.79405 25 ft 26 kts 289°
2026-05-01 14:37 17.94051 -76.79578 25 ft 25 kts 292°
2026-05-01 14:38 17.94096 -76.79740 25 ft 19 kts 277°
2026-05-01 14:38 17.94109 -76.79874 25 ft 16 kts 251°
2026-05-01 14:38 17.94034 -76.79923 25 ft 12 kts 183°
2026-05-01 14:38 17.94010 -76.79896 25 ft 0 kts 109°
2026-05-01 14:39 17.93947 -76.79730 25 ft 56 kts 112°
2026-05-01 14:39 17.93723 -76.79151 25 ft 113 kts 111°
2026-05-01 14:39 17.93362 -76.78217 29 ft 156 kts 112°
2026-05-01 14:40 17.92935 -76.77174 433 ft 155 kts 111°
2026-05-01 14:40 17.92510 -76.76129 954 ft 157 kts 111°
2026-05-01 14:40 17.92094 -76.75051 1491 ft 160 kts 110°
2026-05-01 14:40 17.91661 -76.73929 1833 ft 176 kts 110°
2026-05-01 14:41 17.91180 -76.72686 2076 ft 191 kts 110°
2026-05-01 14:41 17.90650 -76.71331 2260 ft 215 kts 111°
2026-05-01 14:41 17.90032 -76.69759 2329 ft 251 kts 111°
2026-05-01 14:41 17.89358 -76.68049 3238 ft 251 kts 111°
2026-05-01 14:42 17.88686 -76.66344 4188 ft 257 kts 111°
2026-05-01 14:42 17.88001 -76.64606 5139 ft 259 kts 111°
2026-05-01 14:42 17.87308 -76.62848 6069 ft 262 kts 111°
2026-05-01 14:42 17.86607 -76.61068 6947 ft 267 kts 111°
2026-05-01 14:43 17.85889 -76.59247 7783 ft 272 kts 111°
2026-05-01 14:43 17.85160 -76.57399 8623 ft 276 kts 112°
2026-05-01 14:43 17.84420 -76.55520 9386 ft 281 kts 112°
2026-05-01 14:43 17.83922 -76.54258 9894 ft 284 kts 112°
2026-05-01 14:44 17.82879 -76.51607 10411 ft 310 kts 112°
2026-05-01 14:44 17.81474 -76.47988 11240 ft 325 kts 112°
2026-05-01 14:44 17.80611 -76.45765 11842 ft 331 kts 112°
2026-05-01 14:45 17.79741 -76.43527 12545 ft 332 kts 112°
2026-05-01 14:45 17.77973 -76.38984 13737 ft 339 kts 112°
2026-05-01 14:45 17.76784 -76.35930 14440 ft 344 kts 112°
2026-05-01 14:46 17.76170 -76.34352 14799 ft 346 kts 112°
2026-05-01 14:46 17.74320 -76.29611 15778 ft 355 kts 112°
2026-05-01 14:46 17.73380 -76.27205 16265 ft 358 kts 112°
2026-05-01 14:47 17.72432 -76.24778 16757 ft 361 kts 112°
2026-05-01 14:47 17.71646 -76.22296 17214 ft 364 kts 102°
2026-05-01 14:47 17.71331 -76.19663 17671 ft 366 kts 90°
2026-05-01 14:48 17.71550 -76.14291 18573 ft 371 kts 85°
2026-05-01 14:48 17.71723 -76.11586 19019 ft 374 kts 85°
2026-05-01 14:48 17.72100 -76.06111 19880 ft 379 kts 85°
2026-05-01 14:49 17.72493 -76.00562 20709 ft 384 kts 85°
2026-05-01 14:49 17.72893 -75.94946 21464 ft 389 kts 85°
2026-05-01 14:50 17.73230 -75.90223 22103 ft 393 kts 85°
2026-05-01 14:50 17.73709 -75.83488 22935 ft 398 kts 85°
2026-05-01 14:51 17.73915 -75.80584 23273 ft 400 kts 85°
2026-05-01 14:51 17.74330 -75.74731 23916 ft 404 kts 85°
2026-05-01 14:52 17.74747 -75.68822 24552 ft 408 kts 85°
2026-05-01 14:52 17.74953 -75.65891 24885 ft 408 kts 85°
2026-05-01 14:52 17.75370 -75.59931 25472 ft 411 kts 85°
2026-05-01 14:53 17.75580 -75.56931 25763 ft 413 kts 85°
2026-05-01 14:53 17.75789 -75.53921 26021 ft 415 kts 84°
2026-05-01 14:53 17.75999 -75.50898 26323 ft 415 kts 85°
2026-05-01 14:53 17.76210 -75.47870 26590 ft 417 kts 85°
2026-05-01 14:54 17.76419 -75.44838 26841 ft 419 kts 84°
2026-05-01 14:54 17.76630 -75.41781 27110 ft 420 kts 84°
2026-05-01 14:54 17.76842 -75.38721 27369 ft 421 kts 85°
2026-05-01 14:54 17.77053 -75.35650 27617 ft 423 kts 85°
2026-05-01 14:55 17.77264 -75.32572 27859 ft 424 kts 85°
2026-05-01 14:55 17.77475 -75.29478 28095 ft 426 kts 84°
2026-05-01 14:55 17.77687 -75.26369 28339 ft 427 kts 85°
2026-05-01 14:55 17.77897 -75.23291 28571 ft 429 kts 85°
2026-05-01 14:56 17.78111 -75.20161 28798 ft 431 kts 85°
2026-05-01 14:56 17.78323 -75.17024 29016 ft 432 kts 85°
2026-05-01 14:56 17.78537 -75.13866 29233 ft 434 kts 85°
2026-05-01 14:56 17.78750 -75.10706 29452 ft 435 kts 85°
2026-05-01 14:57 17.78963 -75.07530 29658 ft 437 kts 85°
2026-05-01 14:57 17.79392 -75.01134 30057 ft 440 kts 85°
2026-05-01 14:57 17.79607 -74.97920 30228 ft 443 kts 85°
2026-05-01 14:58 17.79823 -74.94688 30383 ft 445 kts 85°
2026-05-01 14:58 17.80039 -74.91443 30594 ft 446 kts 85°
2026-05-01 14:58 17.80254 -74.88195 30834 ft 447 kts 85°
2026-05-01 14:58 17.80470 -74.84926 30938 ft 450 kts 85°
2026-05-01 14:59 17.80687 -74.81647 31145 ft 451 kts 85°
2026-05-01 14:59 17.80903 -74.78350 31295 ft 454 kts 85°
2026-05-01 14:59 17.81118 -74.75082 31462 ft 456 kts 85°
2026-05-01 14:59 17.81337 -74.71720 31623 ft 458 kts 85°
2026-05-01 15:00 17.81770 -74.65063 31958 ft 462 kts 85°
2026-05-01 15:00 17.81988 -74.61698 32106 ft 464 kts 85°
2026-05-01 15:00 17.82207 -74.58316 32311 ft 465 kts 85°
2026-05-01 15:01 17.82425 -74.54920 32455 ft 467 kts 85°
2026-05-01 15:01 17.82645 -74.51506 32612 ft 469 kts 85°
2026-05-01 15:01 17.82864 -74.48087 32794 ft 471 kts 85°
2026-05-01 15:01 17.83084 -74.44646 32929 ft 473 kts 85°
2026-05-01 15:02 17.83304 -74.41195 33100 ft 474 kts 85°
2026-05-01 15:02 17.83744 -74.34262 33382 ft 477 kts 85°
2026-05-01 15:02 17.83964 -74.30776 33507 ft 479 kts 85°
2026-05-01 15:03 17.84183 -74.27286 33629 ft 481 kts 85°
2026-05-01 15:03 17.84404 -74.23781 33772 ft 482 kts 85°
2026-05-01 15:03 17.84624 -74.20266 33954 ft 481 kts 86°
2026-05-01 15:03 17.84843 -74.16761 34106 ft 482 kts 86°
2026-05-01 15:04 17.85050 -74.13246 34253 ft 483 kts 86°
2026-05-01 15:04 17.85193 -74.09721 34412 ft 483 kts 87°
2026-05-01 15:04 17.85324 -74.06194 34561 ft 483 kts 87°
2026-05-01 15:04 17.85453 -74.02673 34766 ft 483 kts 88°
2026-05-01 15:05 17.85584 -73.99147 34935 ft 484 kts 88°
2026-05-01 15:05 17.85848 -73.92089 34992 ft 487 kts 88°
2026-05-01 15:06 17.86114 -73.84997 34995 ft 487 kts 88°
2026-05-01 15:06 17.86381 -73.77895 34995 ft 487 kts 88°
2026-05-01 15:07 17.86648 -73.70794 34994 ft 487 kts 88°
2026-05-01 15:07 17.86915 -73.63672 34994 ft 488 kts 88°
2026-05-01 15:08 17.87181 -73.56553 34994 ft 488 kts 88°
2026-05-01 15:08 17.87445 -73.49419 34994 ft 489 kts 88°
2026-05-01 15:09 17.87708 -73.42270 34993 ft 490 kts 88°
2026-05-01 15:09 17.87971 -73.35090 34994 ft 492 kts 88°
2026-05-01 15:10 17.88208 -73.27899 34994 ft 493 kts 88°
2026-05-01 15:10 17.88551 -73.17134 34993 ft 494 kts 88°
2026-05-01 15:11 17.88901 -73.06293 34993 ft 497 kts 88°
2026-05-01 15:12 17.89136 -72.99037 34993 ft 498 kts 88°
2026-05-01 15:12 17.89491 -72.88112 34993 ft 500 kts 88°
2026-05-01 15:14 17.90088 -72.69836 34993 ft 502 kts 88°
2026-05-01 15:14 17.90457 -72.58869 34993 ft 504 kts 88°
2026-05-01 15:15 17.90941 -72.44154 34992 ft 504 kts 88°
2026-05-01 15:16 17.91408 -72.29604 34992 ft 495 kts 88°
2026-05-01 15:18 17.91997 -72.11544 35008 ft 496 kts 87°
2026-05-01 15:19 17.92461 -71.97062 35013 ft 496 kts 88°
2026-05-01 15:19 17.92741 -71.86190 35018 ft 496 kts 88°
2026-05-01 15:20 17.93004 -71.75368 35023 ft 496 kts 88°
2026-05-01 15:21 17.93181 -71.68122 35028 ft 497 kts 88°
2026-05-01 15:21 17.93059 -71.60866 35032 ft 497 kts 94°
2026-05-01 15:22 17.92350 -71.50013 35038 ft 498 kts 94°
2026-05-01 15:22 17.91874 -71.42754 35041 ft 498 kts 94°
2026-05-01 15:23 17.91401 -71.35493 35043 ft 499 kts 94°
2026-05-01 15:23 17.90927 -71.28214 35046 ft 500 kts 95°
2026-05-01 15:24 17.90452 -71.20934 35047 ft 501 kts 95°
2026-05-01 15:24 17.89976 -71.13631 35048 ft 500 kts 95°
2026-05-01 15:25 17.89503 -71.06392 35050 ft 501 kts 95°
2026-05-01 15:25 17.89023 -70.99084 35051 ft 502 kts 95°
2026-05-01 15:26 17.88540 -70.91767 35051 ft 503 kts 95°
2026-05-01 15:26 17.88055 -70.84427 35051 ft 504 kts 95°
2026-05-01 15:27 17.87566 -70.77072 35051 ft 505 kts 95°
2026-05-01 15:28 17.86827 -70.66035 35050 ft 506 kts 95°
2026-05-01 15:28 17.86331 -70.58667 35050 ft 506 kts 95°
2026-05-01 15:29 17.85585 -70.47663 35050 ft 507 kts 95°
2026-05-01 15:30 17.84658 -70.34089 35049 ft 508 kts 95°
2026-05-01 15:31 17.83119 -70.10683 35042 ft 509 kts 95°
2026-05-01 15:32 17.82162 -69.95864 35031 ft 509 kts 95°
2026-05-01 15:34 17.80425 -69.73719 35033 ft 508 kts 96°